カタログに戻る

NOAA 16 DEB

運用中SSO
NORAD 41161·DEBRIS·🇺🇸 United States

打ち上げ Sep 21, 2000 から Vandenberg Space Force Base

Loading…

次のパス (今後24時間)

TLE

最新Source: Space-Track

元期: Sep 14, 2026, 08:53 UTC

1 41161U 00055CU  26257.37045073  .00001677  00000-0  77587-3 0  9992
2 41161  98.6722 303.3341 0037292 197.6744 162.3139 14.21809418555623

AllMySatでNOAA 16 DEBをリアルタイム追跡

Download on the App Store